User: anonymous   Login
Location: Unspecified
(0.0000°N, 0.0000°E)
Time: 00:01:09
(UTC+01:00)
Language:

Cosmos 1092 Rocket - Orbit

View from above orbital plane
View from above orbital plane
View from above satellite
View from above satellite

Ground track
Ground track

The orbit data is extracted from the following two-line orbital elements,

1 11327U 79030B   15025.57277237 -.00000084  00000-0 -10112-3 0  9257
2 11327 082.9473 224.5138 0028904 105.6583 307.1550 13.76955732798918
Epoch (UTC): 25 January 2015 13:44:47
Eccentricity: 0.0028904
inclination: 82.9473°
perigee height: 953 km
apogee height: 996 km
right ascension of ascending node: 224.5138°
argument of perigee: 105.6583°
revolutions per day: 13.76955732
mean anomaly at epoch: 307.1550°
orbit number at epoch: 79891

The dashed part of the orbit path shows where the satellite is in the earth's shadow,  

DLR